| time (UTC) | temp F | wind direction | speed MPH | gust MPH | rain 1hr in | rain 24hr in | rain mn in | humidity % | barometer mb |
| 20260505022002 | 53 | 137 | 0.0 | 0.0 | 0.00 | 0.00 | 0.00 | 83 | 1020.1 |
| 20260505021602 | 53 | 137 | 0.0 | 0.0 | 0.00 | 0.00 | 0.00 | 83 | 1020.2 |
| 20260505021059 | 54 | 138 | 0.0 | 0.0 | 0.00 | 0.00 | 0.00 | 82 | 1020.2 |
| 20260505020002 | 54 | 137 | 0.0 | 0.0 | 0.00 | 0.00 | 0.00 | 81 | 1020.0 |
| 20260505015502 | 55 | 137 | 0.0 | 0.0 | 0.00 | 0.00 | 0.00 | 80 | 1019.9 |
| 20260505015104 | 55 | 137 | 0.0 | 0.0 | 0.00 | 0.00 | 0.00 | 80 | 1019.8 |
| 20260505014600 | 55 | 138 | 0.0 | 0.0 | 0.00 | 0.00 | 0.00 | 79 | 1019.8 |
| 20260505014102 | 56 | 137 | 0.0 | 0.0 | 0.00 | 0.00 | 0.00 | 79 | 1019.7 |
| 20260505013557 | 56 | 137 | 0.0 | 0.0 | 0.00 | 0.00 | 0.00 | 79 | 1019.7 |
| 20260505013125 | 57 | 137 | 0.0 | 0.0 | 0.00 | 0.00 | 0.00 | 77 | 1019.6 |
| 20260505012556 | 57 | 137 | 0.0 | 0.0 | 0.00 | 0.00 | 0.00 | 77 | 1019.6 |
| 20260505012056 | 57 | 137 | 0.0 | 0.0 | 0.00 | 0.00 | 0.00 | 76 | 1019.5 |
| 20260505011600 | 58 | 137 | 0.0 | 0.0 | 0.00 | 0.00 | 0.00 | 76 | 1019.5 |
| 20260505011053 | 58 | 137 | 0.0 | 0.0 | 0.00 | 0.00 | 0.00 | 75 | 1019.5 |
| 20260505010105 | 59 | 137 | 0.0 | 0.0 | 0.00 | 0.00 | 0.00 | 72 | 1019.4 |
| 20260505005553 | 59 | 137 | 0.0 | 0.0 | 0.00 | 0.00 | 0.00 | 71 | 1019.3 |
| 20260505005052 | 60 | 147 | 0.0 | 0.0 | 0.00 | 0.00 | 0.00 | 70 | 1019.3 |
| 20260505004552 | 60 | 201 | 0.0 | 0.0 | 0.00 | 0.00 | 0.00 | 69 | 1019.2 |
| 20260505004051 | 61 | 201 | 0.0 | 0.0 | 0.00 | 0.00 | 0.00 | 69 | 1019.1 |
| 20260505003556 | 61 | 201 | 0.0 | 0.0 | 0.00 | 0.00 | 0.00 | 67 | 1019.0 |
| 20260505003053 | 62 | 201 | 0.0 | 0.0 | 0.00 | 0.00 | 0.00 | 65 | 1018.9 |
| 20260505002550 | 63 | 224 | 0.0 | 0.0 | 0.00 | 0.00 | 0.00 | 63 | 1018.7 |
| 20260505002050 | 63 | 221 | 0.0 | 0.0 | 0.00 | 0.00 | 0.00 | 64 | 1018.7 |
| 20260505001550 | 64 | 221 | 0.0 | 0.0 | 0.00 | 0.00 | 0.00 | 64 | 1018.8 |
| 20260505001050 | 64 | 221 | 0.0 | 0.0 | 0.00 | 0.00 | 0.00 | 62 | 1018.7 |
| 20260505000057 | 65 | 137 | 0.0 | 0.0 | 0.00 | 0.00 | 0.00 | 62 | 1018.6 |
| 20260504235546 | 65 | 232 | 0.0 | 0.0 | 0.00 | 0.00 | 0.00 | 60 | 1018.6 |
| 20260504235046 | 66 | 207 | 0.0 | 0.0 | 0.00 | 0.00 | 0.00 | 56 | 1018.6 |
| 20260504234547 | 67 | 232 | 0.0 | 0.0 | 0.00 | 0.00 | 0.00 | 59 | 1018.5 |
| 20260504234045 | 67 | 226 | 0.0 | 0.0 | 0.00 | 0.00 | 0.00 | 55 | 1018.4 |
| 20260504233545 | 67 | 215 | 0.0 | 0.0 | 0.00 | 0.00 | 0.00 | 56 | 1018.4 |
| 20260504233049 | 68 | 236 | 0.0 | 0.0 | 0.00 | 0.00 | 0.00 | 52 | 1018.3 |
| 20260504232549 | 69 | 233 | 0.0 | 0.0 | 0.00 | 0.00 | 0.00 | 48 | 1018.3 |
| 20260504232046 | 69 | 216 | 0.0 | 0.0 | 0.00 | 0.00 | 0.00 | 48 | 1018.3 |
| 20260504231544 | 71 | 11 | 0.0 | 0.0 | 0.00 | 0.00 | 0.00 | 49 | 1018.4 |
| 20260504231043 | 72 | 11 | 0.0 | 0.0 | 0.00 | 0.00 | 0.00 | 41 | 1018.4 |
| 20260504230041 | 73 | 60 | 0.0 | 0.0 | 0.00 | 0.00 | 0.00 | 38 | 1018.3 |
| 20260504225541 | 73 | 339 | 0.0 | 0.0 | 0.00 | 0.00 | 0.00 | 36 | 1018.3 |
| 20260504225042 | 74 | 348 | 0.0 | 0.0 | 0.00 | 0.00 | 0.00 | 37 | 1018.4 |
| 20260504224540 | 74 | 79 | 0.0 | 0.0 | 0.00 | 0.00 | 0.00 | 36 | 1018.4 |
| 20260504224041 | 74 | 72 | 0.0 | 0.0 | 0.00 | 0.00 | 0.00 | 35 | 1018.4 |
| 20260504223541 | 74 | 64 | 0.0 | 0.0 | 0.00 | 0.00 | 0.00 | 34 | 1018.3 |
| 20260504223047 | 74 | 51 | 0.0 | 0.0 | 0.00 | 0.00 | 0.00 | 34 | 1018.4 |
| 20260504222541 | 74 | 102 | 0.0 | 0.0 | 0.00 | 0.00 | 0.00 | 34 | 1018.5 |
| 20260504222040 | 74 | 115 | 0.0 | 0.0 | 0.00 | 0.00 | 0.00 | 34 | 1018.4 |
| 20260504221539 | 74 | 89 | 0.0 | 0.0 | 0.00 | 0.00 | 0.00 | 34 | 1018.4 |
| 20260504221040 | 74 | 93 | 0.0 | 0.0 | 0.00 | 0.00 | 0.00 | 33 | 1018.5 |
| 20260504220042 | 74 | 96 | 0.0 | 0.0 | 0.00 | 0.00 | 0.00 | 32 | 1018.4 |
| 20260504215538 | 75 | 68 | 0.0 | 0.0 | 0.00 | 0.00 | 0.00 | 31 | 1018.5 |
| 20260504215038 | 75 | 90 | 0.0 | 0.0 | 0.00 | 0.00 | 0.00 | 32 | 1018.3 |
| 20260504214545 | 75 | 130 | 0.0 | 0.0 | 0.00 | 0.00 | 0.00 | 31 | 1018.5 |
| 20260504214039 | 76 | 51 | 0.0 | 0.0 | 0.00 | 0.00 | 0.00 | 30 | 1018.3 |
| 20260504213539 | 76 | 42 | 0.0 | 0.0 | 0.00 | 0.00 | 0.00 | 32 | 1018.3 |
| 20260504213041 | 76 | 89 | 0.0 | 0.0 | 0.00 | 0.00 | 0.00 | 32 | 1018.4 |
| 20260504212538 | 76 | 65 | 0.0 | 0.0 | 0.00 | 0.00 | 0.00 | 33 | 1018.3 |
| 20260504212038 | 76 | 49 | 0.0 | 0.0 | 0.00 | 0.00 | 0.00 | 33 | 1018.4 |
| 20260504211538 | 76 | 45 | 0.0 | 0.0 | 0.00 | 0.00 | 0.00 | 31 | 1018.4 |
| 20260504211041 | 76 | 105 | 0.0 | 0.0 | 0.00 | 0.00 | 0.00 | 32 | 1018.4 |
| 20260504210042 | 76 | 46 | 0.0 | 0.0 | 0.00 | 0.00 | 0.00 | 31 | 1018.3 |
| 20260504205544 | 76 | 318 | 0.0 | 0.0 | 0.00 | 0.00 | 0.00 | 32 | 1018.4 |
| 20260504205040 | 76 | 46 | 0.0 | 0.0 | 0.00 | 0.00 | 0.00 | 31 | 1018.4 |
| 20260504204541 | 77 | 115 | 0.0 | 0.0 | 0.00 | 0.00 | 0.00 | 31 | 1018.4 |
| 20260504204041 | 77 | 181 | 0.0 | 0.0 | 0.00 | 0.00 | 0.00 | 30 | 1018.5 |
| 20260504203541 | 77 | 67 | 0.0 | 0.0 | 0.00 | 0.00 | 0.00 | 31 | 1018.5 |
| 20260504203041 | 78 | 144 | 0.0 | 0.0 | 0.00 | 0.00 | 0.00 | 31 | 1018.5 |
| 20260504202538 | 78 | 241 | 0.0 | 0.0 | 0.00 | 0.00 | 0.00 | 31 | 1018.3 |
| 20260504202038 | 77 | 356 | 0.0 | 0.0 | 0.00 | 0.00 | 0.00 | 32 | 1018.6 |
| 20260504201543 | 78 | 105 | 0.0 | 0.0 | 0.00 | 0.00 | 0.00 | 31 | 1018.6 |
| 20260504201042 | 78 | 188 | 0.0 | 0.0 | 0.00 | 0.00 | 0.00 | 32 | 1018.7 |
| 20260504200033 | 78 | 127 | 0.0 | 0.0 | 0.00 | 0.00 | 0.00 | 32 | 1018.9 |
| 20260504195533 | 78 | 53 | 0.0 | 0.0 | 0.00 | 0.00 | 0.00 | 33 | 1018.9 |
| 20260504195031 | 78 | 143 | 0.0 | 0.0 | 0.00 | 0.00 | 0.00 | 31 | 1018.9 |
| 20260504194532 | 79 | 112 | 0.0 | 0.0 | 0.00 | 0.00 | 0.00 | 32 | 1019.0 |
| 20260504194030 | 78 | 73 | 0.0 | 0.0 | 0.00 | 0.00 | 0.00 | 32 | 1019.1 |
| 20260504193529 | 77 | 78 | 0.0 | 0.0 | 0.00 | 0.00 | 0.00 | 32 | 1019.1 |
| 20260504193030 | 77 | 58 | 0.0 | 0.0 | 0.00 | 0.00 | 0.00 | 32 | 1019.2 |
| 20260504192528 | 78 | 120 | 0.0 | 0.0 | 0.00 | 0.00 | 0.00 | 33 | 1019.3 |
| 20260504192031 | 77 | 106 | 0.0 | 0.0 | 0.00 | 0.00 | 0.00 | 33 | 1019.2 |
| 20260504191528 | 77 | 76 | 0.0 | 0.0 | 0.00 | 0.00 | 0.00 | 32 | 1019.3 |
| 20260504191027 | 78 | 104 | 0.0 | 0.0 | 0.00 | 0.00 | 0.00 | 32 | 1019.4 |
| 20260504190026 | 77 | 113 | 0.0 | 0.0 | 0.00 | 0.00 | 0.00 | 31 | 1019.6 |
| 20260504185524 | 77 | 85 | 0.0 | 0.0 | 0.00 | 0.00 | 0.00 | 31 | 1019.6 |
| 20260504185023 | 77 | 49 | 0.0 | 0.0 | 0.00 | 0.00 | 0.00 | 33 | 1019.7 |
| 20260504184524 | 77 | 134 | 0.0 | 0.0 | 0.00 | 0.00 | 0.00 | 32 | 1019.7 |
| 20260504184022 | 77 | 59 | 0.0 | 0.0 | 0.00 | 0.00 | 0.00 | 32 | 1019.7 |
| 20260504183520 | 77 | 120 | 0.0 | 0.0 | 0.00 | 0.00 | 0.00 | 36 | 1019.8 |
| 20260504183020 | 76 | 247 | 0.0 | 0.0 | 0.00 | 0.00 | 0.00 | 33 | 1020.0 |
| 20260504182519 | 76 | 136 | 0.0 | 0.0 | 0.00 | 0.00 | 0.00 | 37 | 1020.1 |
| 20260504182019 | 76 | 68 | 0.0 | 0.0 | 0.00 | 0.00 | 0.00 | 34 | 1020.2 |
| 20260504181526 | 75 | 153 | 0.0 | 0.0 | 0.00 | 0.00 | 0.00 | 33 | 1020.3 |
| 20260504181018 | 75 | 86 | 0.0 | 0.0 | 0.00 | 0.00 | 0.00 | 33 | 1020.4 |
| 20260504180018 | 74 | 51 | 0.0 | 0.0 | 0.00 | 0.00 | 0.00 | 34 | 1020.5 |
| 20260504175518 | 74 | 56 | 0.0 | 0.0 | 0.00 | 0.00 | 0.00 | 35 | 1020.6 |
| 20260504175018 | 74 | 134 | 0.0 | 0.0 | 0.00 | 0.00 | 0.00 | 36 | 1020.6 |
| 20260504174517 | 74 | 91 | 0.0 | 0.0 | 0.00 | 0.00 | 0.00 | 37 | 1020.6 |
| 20260504174017 | 75 | 120 | 0.0 | 0.0 | 0.00 | 0.00 | 0.00 | 35 | 1020.6 |
| 20260504173516 | 75 | 118 | 0.0 | 0.0 | 0.00 | 0.00 | 0.00 | 34 | 1020.9 |
| 20260504173015 | 75 | 328 | 0.0 | 0.0 | 0.00 | 0.00 | 0.00 | 34 | 1020.7 |
| 20260504172514 | 74 | 43 | 0.0 | 0.0 | 0.00 | 0.00 | 0.00 | 36 | 1020.8 |
| 20260504172014 | 74 | 113 | 0.0 | 0.0 | 0.00 | 0.00 | 0.00 | 37 | 1020.8 |
| 20260504171514 | 74 | 94 | 0.0 | 0.0 | 0.00 | 0.00 | 0.00 | 36 | 1020.9 |
| 20260504171014 | 74 | 122 | 0.0 | 0.0 | 0.00 | 0.00 | 0.00 | 36 | 1020.9 |
| 20260504151054 | 70 | 41 | 0.0 | 0.0 | 0.00 | 0.00 | 0.00 | 43 | 1023.0 |
| 20260504141045 | 63 | 37 | 0.0 | 0.0 | 0.00 | 0.00 | 0.00 | 51 | 1023.1 |
| 20260504081533 | 37 | 53 | 0.0 | 0.0 | 0.00 | 0.00 | 0.00 | 95 | 1022.7 |
| 20260504081024 | 37 | 53 | 0.0 | 0.0 | 0.00 | 0.00 | 0.00 | 95 | 1022.7 |
| 20260504060112 | 41 | 235 | 0.0 | 0.0 | 0.00 | 0.00 | 0.00 | 94 | 1022.8 |
| 20260504050008 | 42 | 353 | 0.0 | 0.0 | 0.00 | 0.00 | 0.00 | 93 | 1022.9 |
| 20260504045507 | 42 | 354 | 0.0 | 0.0 | 0.00 | 0.00 | 0.00 | 92 | 1022.9 |
| 20260504045006 | 42 | 42 | 0.0 | 0.0 | 0.00 | 0.00 | 0.00 | 92 | 1022.8 |
| 20260504044506 | 42 | 51 | 0.0 | 0.0 | 0.00 | 0.00 | 0.00 | 92 | 1022.7 |
| 20260504044005 | 43 | 51 | 0.0 | 0.0 | 0.00 | 0.00 | 0.00 | 92 | 1022.6 |
| 20260504043505 | 43 | 51 | 0.0 | 0.0 | 0.00 | 0.00 | 0.00 | 92 | 1022.7 |
| 20260504043004 | 43 | 51 | 0.0 | 0.0 | 0.00 | 0.00 | 0.00 | 92 | 1022.8 |
| 20260504042503 | 43 | 56 | 0.0 | 0.0 | 0.00 | 0.00 | 0.00 | 92 | 1022.8 |
| 20260504042004 | 43 | 231 | 0.0 | 0.0 | 0.00 | 0.00 | 0.00 | 92 | 1022.6 |
| 20260504041503 | 43 | 231 | 0.0 | 0.0 | 0.00 | 0.00 | 0.00 | 92 | 1022.6 |
| 20260504041002 | 44 | 231 | 0.0 | 0.0 | 0.00 | 0.00 | 0.00 | 92 | 1022.5 |
| 20260504040003 | 44 | 231 | 0.0 | 0.0 | 0.00 | 0.00 | 0.00 | 91 | 1022.4 |
| 20260504035502 | 44 | 231 | 0.0 | 0.0 | 0.00 | 0.00 | 0.00 | 91 | 1022.4 |
| 20260504035001 | 44 | 231 | 0.0 | 0.0 | 0.00 | 0.00 | 0.00 | 90 | 1022.5 |
| 20260504034559 | 44 | 232 | 0.0 | 0.0 | 0.00 | 0.00 | 0.00 | 90 | 1022.5 |
| 20260504034058 | 45 | 232 | 0.0 | 0.0 | 0.00 | 0.00 | 0.00 | 90 | 1022.6 |
| 20260504033557 | 45 | 231 | 0.0 | 0.0 | 0.00 | 0.00 | 0.00 | 89 | 1022.6 |
| 20260504033115 | 45 | 232 | 0.0 | 0.0 | 0.00 | 0.00 | 0.00 | 89 | 1022.6 |
| 20260504032559 | 45 | 231 | 0.0 | 0.0 | 0.00 | 0.00 | 0.00 | 89 | 1022.7 |
| 20260504032057 | 45 | 231 | 0.0 | 0.0 | 0.00 | 0.00 | 0.00 | 89 | 1022.8 |
| 20260504031602 | 45 | 231 | 0.0 | 0.0 | 0.00 | 0.00 | 0.00 | 88 | 1022.7 |
| 20260504031056 | 46 | 231 | 0.0 | 0.0 | 0.00 | 0.00 | 0.00 | 88 | 1022.7 |
| 20260504030656 | 46 | 231 | 0.0 | 0.0 | 0.00 | 0.00 | 0.00 | 87 | 1022.7 |
| 20260504030054 | 46 | 231 | 0.0 | 0.0 | 0.00 | 0.00 | 0.00 | 87 | 1022.8 |
| 20260504025553 | 47 | 232 | 0.0 | 0.0 | 0.00 | 0.00 | 0.00 | 86 | 1022.8 |
| 20260504025052 | 47 | 231 | 0.0 | 0.0 | 0.00 | 0.00 | 0.00 | 85 | 1022.8 |
| 20260504024559 | 47 | 231 | 0.0 | 0.0 | 0.00 | 0.00 | 0.00 | 85 | 1022.8 |
| 20260504024052 | 47 | 231 | 0.0 | 0.0 | 0.00 | 0.00 | 0.00 | 85 | 1022.7 |
| 20260504023554 | 47 | 231 | 0.0 | 0.0 | 0.00 | 0.00 | 0.00 | 85 | 1022.7 |
| 20260504023050 | 47 | 231 | 0.0 | 0.0 | 0.00 | 0.00 | 0.00 | 85 | 1022.6 |
| 20260504022550 | 48 | 231 | 0.0 | 0.0 | 0.00 | 0.00 | 0.00 | 83 | 1022.6 |
| 20260504022048 | 48 | 231 | 0.0 | 0.0 | 0.00 | 0.00 | 0.00 | 84 | 1022.5 |